CW8198 Weather Reports


Display with metric or nautical units.
time (UTC)temp
F
wind
direction
speed
MPH
gust
MPH
rain 1hr
in
rain 24hr
in
rain mn
in
humidity
%
barometer
mb
20260509171126 74 20 3.0 11.0 0.00 0.00 0.00 37 1008.8
20260509170625 74 341 5.0 11.0 0.00 0.00 0.00 36 1008.7
20260509170125 74 344 7.0 11.0 0.00 0.00 0.00 33 1008.7
20260509165625 75 339 4.0 11.0 0.00 0.00 0.00 34 1008.6
20260509165126 74 9 3.0 11.0 0.00 0.00 0.00 37 1008.6
20260509164623 74 51 4.0 11.0 0.00 0.00 0.00 37 1008.6
20260509163123 74 15 6.0 11.0 0.00 0.00 0.00 37 1008.5
20260509162622 74 9 2.0 11.0 0.00 0.00 0.00 36 1008.6
20260509161622 74 51 3.0 12.0 0.00 0.00 0.00 39 1008.4
20260509161122 74 347 2.0 12.0 0.00 0.00 0.00 38 1008.4
20260509160621 74 9 4.0 11.0 0.00 0.00 0.00 37 1008.5
20260509155622 73 336 6.0 12.0 0.00 0.00 0.00 37 1008.6
20260509155122 73 286 4.0 9.0 0.00 0.00 0.00 40 1008.6
20260509154622 72 309 2.0 14.0 0.00 0.00 0.00 40 1008.8
20260509154120 72 24 7.0 14.0 0.00 0.00 0.00 38 1009.0
20260509153619 72 279 4.0 14.0 0.00 0.00 0.00 36 1009.0
20260509153119 72 334 5.0 14.0 0.00 0.00 0.00 39 1009.2
20260509152618 71 301 4.0 13.0 0.00 0.00 0.00 39 1009.2
20260509152118 71 317 5.0 12.0 0.00 0.00 0.00 42 1009.0
20260509151618 71 321 4.0 11.0 0.00 0.00 0.00 42 1008.8
20260509150117 69 26 4.0 14.0 0.00 0.00 0.00 44 1008.8
20260509145616 68 342 4.0 14.0 0.00 0.00 0.00 46 1008.9
20260509145118 68 346 5.0 17.0 0.00 0.00 0.00 48 1008.9
20260509144616 67 347 9.0 17.0 0.00 0.00 0.00 46 1008.4
20260509144116 67 346 6.0 13.0 0.00 0.00 0.00 53 1008.7
20260509143615 66 9 1.0 8.0 0.00 0.00 0.00 45 1007.8
20260509143115 65 243 4.0 8.0 0.00 0.00 0.00 47 1007.6
20260509142613 64 219 4.0 6.0 0.00 0.00 0.00 48 1007.6
20260509142113 63 221 2.0 4.0 0.00 0.00 0.00 52 1007.6
20260509141612 63 252 2.0 4.0 0.00 0.00 0.00 57 1007.6
20260509140612 61 245 3.0 5.0 0.00 0.00 0.00 59 1007.6
20260509140111 59 284 2.0 4.0 0.00 0.00 0.00 66 1007.7
20260509135614 58 196 3.0 4.0 0.00 0.00 0.00 71 1007.7
20260509134610 54 250 1.0 2.0 0.00 0.00 0.00 82 1007.6
20260509134110 53 178 1.0 2.0 0.00 0.00 0.00 86 1007.6
20260509133609 51 137 1.0 2.0 0.00 0.00 0.00 88 1007.6
20260509132604 49 221 1.0 2.0 0.00 0.00 0.00 89 1007.7
20260509132104 48 126 1.0 3.0 0.00 0.00 0.00 90 1007.6
20260509131603 47 124 2.0 3.0 0.00 0.00 0.00 90 1007.5
20260509131103 47 137 1.0 2.0 0.00 0.00 0.00 90 1007.6
20260509130602 46 212 1.0 2.0 0.00 0.00 0.00 90 1007.6
20260509125601 45 190 0.0 2.0 0.00 0.00 0.00 90 1007.4
20260509125101 44 137 1.0 2.0 0.00 0.00 0.00 90 1007.5
20260509124600 43 265 0.0 2.0 0.00 0.00 0.00 90 1007.5
20260509123600 42 309 0.0 1.0 0.00 0.00 0.00 90 1007.5
20260509123100 42 9 0.0 1.0 0.00 0.00 0.00 89 1007.7
20260509122554 42 178 1.0 2.0 0.00 0.00 0.00 90 1007.6
20260509122054 42 319 0.0 2.0 0.00 0.00 0.00 90 1007.5
20260509121549 41 144 1.0 2.0 0.00 0.00 0.00 89 1007.4
20260509121049 41 137 1.0 2.0 0.00 0.00 0.00 89 1007.5
20260509120048 40 178 0.0 1.0 0.00 0.00 0.00 89 1007.5
20260509115547 40 205 0.0 1.0 0.00 0.00 0.00 89 1007.4
20260509115042 40 334 0.0 1.0 0.00 0.00 0.00 89 1007.4
20260509114041 40 9 0.0 2.0 0.00 0.00 0.00 89 1007.2
20260509113541 40 9 0.0 1.0 0.00 0.00 0.00 88 1007.2
20260509113041 40 178 0.0 1.0 0.00 0.00 0.00 88 1007.2
20260509112541 40 119 0.0 1.0 0.00 0.00 0.00 88 1007.2
20260509111539 40 137 0.0 1.0 0.00 0.00 0.00 88 1007.1
20260509111038 40 265 0.0 1.0 0.00 0.00 0.00 88 1007.1
20260509110033 40 178 0.0 1.0 0.00 0.00 0.00 88 1006.9
20260509105532 40 34 0.0 1.0 0.00 0.00 0.00 87 1006.9
20260509105032 40 193 0.0 1.0 0.00 0.00 0.00 87 1007.1
20260509104531 40 119 0.0 1.0 0.00 0.00 0.00 87 1007.1
20260509103526 41 265 0.0 1.0 0.00 0.00 0.00 87 1007.2
20260509103021 41 309 0.0 1.0 0.00 0.00 0.00 87 1007.2
20260509102515 41 119 0.0 2.0 0.00 0.00 0.00 87 1007.1
20260509102014 41 119 1.0 2.0 0.00 0.00 0.00 86 1007.1
20260509101514 41 178 0.0 1.0 0.00 0.00 0.00 86 1007.1
20260509100515 41 309 0.0 1.0 0.00 0.00 0.00 85 1007.1
20260509100013 42 9 0.0 1.0 0.00 0.00 0.00 85 1007.2
20260509095513 42 265 0.0 2.0 0.00 0.00 0.00 85 1007.1
20260509094513 42 131 1.0 2.0 0.00 0.00 0.00 84 1007.3
20260509094012 42 108 0.0 1.0 0.00 0.00 0.00 84 1007.2
20260509093511 42 325 0.0 1.0 0.00 0.00 0.00 84 1007.1
20260509092512 42 196 1.0 2.0 0.00 0.00 0.00 83 1007.1
20260509092010 42 232 0.0 1.0 0.00 0.00 0.00 83 1007.1
20260509091510 43 93 0.0 1.0 0.00 0.00 0.00 83 1007.1
20260509091010 42 126 0.0 1.0 0.00 0.00 0.00 83 1007.2
20260509090500 42 309 0.0 1.0 0.00 0.00 0.00 82 1007.2
20260509085959 42 309 0.0 1.0 0.00 0.00 0.00 81 1007.1
20260509084948 43 334 0.0 1.0 0.00 0.00 0.00 80 1007.1
20260509084442 43 265 0.0 1.0 0.00 0.00 0.00 80 1006.9
20260509083942 44 178 0.0 1.0 0.00 0.00 0.00 80 1006.9
20260509083439 44 111 0.0 1.0 0.00 0.00 0.00 80 1007.1
20260509082932 44 93 0.0 2.0 0.00 0.00 0.00 80 1007.1
20260509081931 44 153 0.0 1.0 0.00 0.00 0.00 78 1007.1
20260509081431 44 126 0.0 1.0 0.00 0.00 0.00 77 1007.1
20260509080931 45 9 0.0 1.0 0.00 0.00 0.00 77 1007.1
20260509080430 45 291 0.0 1.0 0.00 0.00 0.00 77 1007.1
20260509075920 45 309 0.0 1.0 0.00 0.00 0.00 76 1007.1
20260509075420 46 9 0.0 1.0 0.00 0.00 0.00 77 1006.9
20260509074914 46 41 0.0 1.0 0.00 0.00 0.00 76 1007.1
20260509074415 46 291 0.0 2.0 0.00 0.00 0.00 75 1007.1
20260509073914 46 111 0.0 2.0 0.00 0.00 0.00 74 1007.1
20260509073413 47 119 0.0 2.0 0.00 0.00 0.00 73 1007.1
20260509072915 47 137 0.0 2.0 0.00 0.00 0.00 72 1007.2
20260509072413 48 178 0.0 1.0 0.00 0.00 0.00 71 1007.2
20260509071912 48 137 0.0 1.0 0.00 0.00 0.00 71 1007.1
20260509071412 48 51 0.0 1.0 0.00 0.00 0.00 70 1007.1
20260509070913 49 34 0.0 1.0 0.00 0.00 0.00 69 1007.1
20260509070413 49 309 0.0 1.0 0.00 0.00 0.00 67 1007.2
20260509065913 49 325 0.0 1.0 0.00 0.00 0.00 67 1007.2
20260509064908 50 76 2.0 3.0 0.00 0.00 0.00 66 1007.3
20260509064405 51 93 0.0 3.0 0.00 0.00 0.00 63 1007.4
20260509063905 51 129 2.0 3.0 0.00 0.00 0.00 62 1007.3
20260509063406 52 9 1.0 3.0 0.00 0.00 0.00 61 1007.4
20260509062905 52 9 2.0 3.0 0.00 0.00 0.00 60 1007.3
20260509062405 52 22 1.0 3.0 0.00 0.00 0.00 60 1007.4
20260509061904 52 34 1.0 3.0 0.00 0.00 0.00 61 1007.4
20260509061404 52 334 1.0 3.0 0.00 0.00 0.00 59 1007.4
20260509060904 52 334 2.0 3.0 0.00 0.00 0.00 61 1007.3
20260509060405 52 265 0.0 3.0 0.00 0.00 0.00 61 1007.3
20260509055903 52 341 2.0 3.0 0.00 0.00 0.00 61 1007.4
20260509055405 51 26 1.0 3.0 0.00 0.00 0.00 62 1007.4
20260509054903 51 344 1.0 3.0 0.00 0.00 0.00 64 1007.4
20260509054402 51 9 2.0 4.0 0.00 0.00 0.00 65 1007.4
20260509053902 51 298 1.0 4.0 0.00 0.00 0.00 66 1007.3
20260509053402 51 337 2.0 4.0 0.00 0.00 0.00 67 1007.2
20260509052901 50 341 2.0 4.0 0.00 0.00 0.00 68 1007.2
20260509052401 50 20 2.0 4.0 0.00 0.00 0.00 68 1007.3
20260509051901 50 341 1.0 4.0 0.00 0.00 0.00 68 1007.2
20260509051400 50 325 1.0 3.0 0.00 0.00 0.00 67 1007.2
20260509050902 50 309 2.0 3.0 0.00 0.00 0.00 67 1007.1
20260509050359 51 16 0.0 2.0 0.00 0.00 0.00 66 1007.2
20260509045859 51 9 1.0 2.0 0.00 0.00 0.00 66 1007.1
20260509044858 52 26 0.0 1.0 0.00 0.00 0.00 66 1007.1
20260509044358 52 205 0.0 1.0 0.00 0.00 0.00 66 1006.9
20260509043357 53 265 1.0 3.0 0.00 0.00 0.00 65 1006.9
20260509042859 53 309 0.0 1.0 0.00 0.00 0.00 65 1006.9
20260509042357 53 309 0.0 1.0 0.00 0.00 0.00 64 1006.8
20260509041856 54 309 0.0 1.0 0.00 0.00 0.00 63 1006.8
20260509041356 54 205 0.0 1.0 0.00 0.00 0.00 62 1006.8
20260509040855 55 265 0.0 1.0 0.00 0.00 0.00 60 1006.8
20260509040356 55 325 0.0 1.0 0.00 0.00 0.00 59 1006.8
20260509035857 55 325 0.0 1.0 0.00 0.00 0.00 58 1006.7
20260509035356 56 111 0.0 1.0 0.00 0.00 0.00 57 1006.7
20260509034855 56 309 0.0 1.0 0.00 0.00 0.00 57 1006.8
20260509034354 56 26 0.0 1.0 0.00 0.00 0.00 54 1006.8
20260509033855 57 309 0.0 1.0 0.00 0.00 0.00 54 1006.8
20260509033354 57 298 0.0 1.0 0.00 0.00 0.00 51 1006.7
20260509032348 58 178 1.0 2.0 0.00 0.00 0.00 50 1006.5
20260509031849 59 292 1.0 1.0 0.00 0.00 0.00 51 1006.5
20260509031348 59 93 0.0 1.0 0.00 0.00 0.00 48 1006.4
20260509030849 60 309 0.0 2.0 0.00 0.00 0.00 47 1006.4
20260509030341 60 309 1.0 2.0 0.00 0.00 0.00 46 1006.3
20260509025837 61 9 1.0 2.0 0.00 0.00 0.00 43 1006.2
20260509025336 62 238 0.0 2.0 0.00 0.00 0.00 42 1006.2
20260509024836 62 205 1.0 4.0 0.00 0.00 0.00 43 1006.0
20260509024336 62 153 1.0 4.0 0.00 0.00 0.00 39 1006.0
20260509023835 61 347 2.0 3.0 0.00 0.00 0.00 38 1006.0
20260509023335 61 9 0.0 1.0 0.00 0.00 0.00 42 1005.9
20260509022834 62 51 0.0 1.0 0.00 0.00 0.00 42 1005.7
20260509022333 62 126 0.0 1.0 0.00 0.00 0.00 41 1005.6
20260509021833 63 93 0.0 1.0 0.00 0.00 0.00 40 1005.6
20260509021328 64 119 0.0 2.0 0.00 0.00 0.00 38 1005.5
20260509020829 65 9 0.0 2.0 0.00 0.00 0.00 38 1005.4
20260509020328 66 205 0.0 2.0 0.00 0.00 0.00 35 1005.4
20260509015827 66 108 0.0 2.0 0.00 0.00 0.00 34 1005.3
20260509015323 67 126 0.0 1.0 0.00 0.00 0.00 33 1005.3
20260509014824 67 51 0.0 1.0 0.00 0.00 0.00 33 1005.3
20260509014322 68 51 0.0 1.0 0.00 0.00 0.00 32 1005.2
20260509013822 68 137 0.0 2.0 0.00 0.00 0.00 32 1005.2
20260509013321 68 51 1.0 2.0 0.00 0.00 0.00 31 1005.2
20260509012321 69 336 1.0 4.0 0.00 0.00 0.00 31 1005.1
20260509011315 70 9 2.0 8.0 0.00 0.00 0.00 30 1005.0
20260509010815 71 325 3.0 8.0 0.00 0.00 0.00 29 1005.0
20260509005815 72 325 2.0 8.0 0.00 0.00 0.00 31 1004.9
20260509005315 72 334 2.0 10.0 0.00 0.00 0.00 29 1004.9
20260509004314 73 302 2.0 11.0 0.00 0.00 0.00 30 1004.8
20260509003815 74 301 3.0 11.0 0.00 0.00 0.00 29 1004.8
20260509003314 74 15 3.0 9.0 0.00 0.00 0.00 29 1004.8
20260509002313 75 277 4.0 11.0 0.00 0.00 0.00 30 1004.7
20260509001813 75 272 3.0 11.0 0.00 0.00 0.00 30 1004.7
20260509000812 75 13 3.0 7.0 0.00 0.00 0.00 34 1004.7
20260509000311 75 289 3.0 10.0 0.00 0.00 0.00 34 1004.6
20260508235812 74 282 3.0 10.0 0.00 0.00 0.00 34 1004.8
20260508235313 74 286 2.0 7.0 0.00 0.00 0.00 38 1004.8
20260508234811 74 277 4.0 8.0 0.00 0.00 0.00 35 1004.7
20260508234311 73 304 3.0 10.0 0.00 0.00 0.00 36 1004.8
20260508233311 73 243 4.0 8.0 0.00 0.00 0.00 35 1004.8
20260508232810 73 271 3.0 6.0 0.00 0.00 0.00 38 1004.8
20260508232310 73 255 2.0 5.0 0.00 0.00 0.00 36 1004.8
20260508231809 73 254 2.0 7.0 0.00 0.00 0.00 35 1004.8
20260508231309 73 279 2.0 7.0 0.00 0.00 0.00 36 1004.8
20260508230809 73 236 2.0 4.0 0.00 0.00 0.00 33 1004.9
20260508230309 73 178 1.0 4.0 0.00 0.00 0.00 34 1004.9
20260508225808 74 275 2.0 6.0 0.00 0.00 0.00 34 1004.9
20260508224808 74 286 2.0 8.0 0.00 0.00 0.00 34 1004.9
20260508224307 74 254 4.0 13.0 0.00 0.00 0.00 32 1004.9
20260508222306 76 344 1.0 5.0 0.00 0.00 0.00 35 1005.0
20260508221305 76 334 2.0 8.0 0.00 0.00 0.00 38 1005.2
20260508220805 76 225 3.0 9.0 0.00 0.00 0.00 30 1005.2
20260508220305 76 226 4.0 11.0 0.00 0.00 0.00 28 1005.2
20260508215306 77 242 4.0 15.0 0.00 0.00 0.00 29 1005.1
20260508214804 78 223 6.0 12.0 0.00 0.00 0.00 28 1005.2
20260508213805 76 225 3.0 11.0 0.00 0.00 0.00 27 1005.3
20260508213303 76 259 5.0 11.0 0.00 0.00 0.00 32 1005.4
20260508212803 76 234 5.0 12.0 0.00 0.00 0.00 29 1005.4
20260508212306 78 217 6.0 12.0 0.00 0.00 0.00 28 1005.4
20260508211802 78 246 5.0 12.0 0.00 0.00 0.00 31 1005.5
20260508211302 78 298 8.0 12.0 0.00 0.00 0.00 28 1005.5
20260508210801 78 249 6.0 14.0 0.00 0.00 0.00 31 1005.6
20260508210301 79 232 5.0 14.0 0.00 0.00 0.00 28 1005.8
20260508205801 78 234 7.0 12.0 0.00 0.00 0.00 29 1005.8
20260508205301 77 221 8.0 12.0 0.00 0.00 0.00 31 1005.8
20260508204800 76 244 4.0 12.0 0.00 0.00 0.00 30 1005.9
20260508204300 76 240 8.0 12.0 0.00 0.00 0.00 28 1006.0
20260508203802 77 275 4.0 13.0 0.00 0.00 0.00 29 1006.1
20260508203259 77 314 6.0 13.0 0.00 0.00 0.00 32 1006.2
20260508201758 76 223 7.0 15.0 0.00 0.00 0.00 31 1006.2
20260508201256 76 234 3.0 15.0 0.00 0.00 0.00 37 1006.4
20260508200756 75 26 4.0 9.0 0.00 0.00 0.00 31 1006.4
20260508200257 75 183 2.0 9.0 0.00 0.00 0.00 31 1006.5
20260508195756 76 207 5.0 12.0 0.00 0.00 0.00 30 1006.6
20260508194755 76 277 4.0 14.0 0.00 0.00 0.00 28 1006.7
20260508194254 76 248 4.0 13.0 0.00 0.00 0.00 34 1006.8
20260508193252 76 178 4.0 9.0 0.00 0.00 0.00 27 1006.9
20260508192252 76 113 3.0 15.0 0.00 0.00 0.00 25 1006.9
20260508191751 77 171 6.0 11.0 0.00 0.00 0.00 29 1006.8
20260508191251 77 254 3.0 9.0 0.00 0.00 0.00 32 1006.9
20260508190251 75 229 3.0 7.0 0.00 0.00 0.00 31 1007.2
20260508185751 75 184 2.0 10.0 0.00 0.00 0.00 30 1007.2
20260508185250 75 209 6.0 10.0 0.00 0.00 0.00 27 1007.2
20260508184250 76 205 6.0 12.0 0.00 0.00 0.00 31 1007.3
20260508183249 76 218 3.0 11.0 0.00 0.00 0.00 32 1007.3
20260508182749 75 261 4.0 11.0 0.00 0.00 0.00 41 1007.5
20260508182249 75 198 4.0 9.0 0.00 0.00 0.00 32 1007.5
20260508181749 74 93 2.0 11.0 0.00 0.00 0.00 31 1007.5
20260508181248 74 214 6.0 11.0 0.00 0.00 0.00 32 1007.6
20260508180748 74 221 5.0 10.0 0.00 0.00 0.00 33 1007.6
20260508180248 74 34 5.0 10.0 0.00 0.00 0.00 32 1007.6
20260508175748 74 194 4.0 8.0 0.00 0.00 0.00 32 1007.7
20260508174748 74 182 4.0 10.0 0.00 0.00 0.00 33 1007.7
20260508174247 74 269 6.0 10.0 0.00 0.00 0.00 33 1007.8
20260508173748 74 175 4.0 9.0 0.00 0.00 0.00 34 1007.8
20260508173247 74 221 5.0 10.0 0.00 0.00 0.00 32 1007.9
20260508172247 73 51 4.0 10.0 0.00 0.00 0.00 32 1008.0
20260508171746 73 211 4.0 10.0 0.00 0.00 0.00 36 1008.1